• Processing (Info)

  • MPEC 2005-V37 : 2005 VQ

    The following Minor Planet Electronic Circular may be linked-to from your own Web pages, but must not otherwise be redistributed electronically.

    A form allowing access to any MPEC is at the bottom of this page.


    Read MPEC 2005-V36 Read MPEC 2005-V38


    M.P.E.C. 2005-V37                                Issued 2005 Nov. 4, 16:08 UT
    
         The Minor Planet Electronic Circulars contain information on unusual
             minor planets and routine data on comets.  They are published
       on behalf of Commission 20 of the International Astronomical Union by the
              Minor Planet Center, Smithsonian Astrophysical Observatory,
                              Cambridge, MA 02138, U.S.A.
    
                      Supported in part by the Brinson Foundation
                      Supported in part by the TABASGO Foundation
                 Prepared using the Tamkin Foundation Computer Network
    
                                  MPC@CFA.HARVARD.EDU
              URL http://cfa-www.harvard.edu/iau/mpc.html  ISSN 1523-6714
    
                                        2005 VQ
    
    Observations:
         K05V00Q* C2005 11 03.30949 03 07 28.45 +06 59 49.5          19.5 V EV037703
         K05V00Q  C2005 11 03.31377 03 07 27.55 +06 59 51.7          19.7 V EV037703
         K05V00Q  C2005 11 03.31803 03 07 26.83 +06 59 52.6          19.2 V EV037703
         K05V00Q  C2005 11 03.32233 03 07 25.86 +06 59 53.5          18.6 V EV037703
         K05V00Q  C2005 11 03.35665 03 07 19.17 +07 00 01.8          19.1 V EV037703
         K05V00Q  C2005 11 03.36223 03 07 18.09 +07 00 06.2                 EV037703
         K05V00Q  C2005 11 03.36784 03 07 17.08 +07 00 06.5                 EV037703
         K05V00Q  C2005 11 03.37343 03 07 15.86 +07 00 07.7          18.9 V EV037703
         K05V00Q  C2005 11 03.88002 03 05 39.30 +07 02 34.4          19   R EV037461
         K05V00Q  C2005 11 03.88382 03 05 38.59 +07 02 35.9                 EV037461
         K05V00Q  C2005 11 03.88762 03 05 37.85 +07 02 36.8                 EV037461
         K05V00Q FC2005 11 03.89143 03 05 37.16 +07 02 38.6                 EV037461
         K05V00Q  C2005 11 04.14580 03 04 48.41 +07 03 55.2          19.4 R EV037932
         K05V00Q  C2005 11 04.15348 03 04 46.91 +07 03 57.5          19.3 R EV037932
         K05V00Q  C2005 11 04.15782 03 04 46.06 +07 03 58.6          19.3 R EV037932
         K05V00Q 5C2005 11 04.21412 03 04 35.48 +07 04 16.4          19.7 R EV037673
         K05V00Q 5C2005 11 04.22049 03 04 34.23 +07 04 18.8                 EV037673
         K05V00Q 5C2005 11 04.22801 03 04 32.90 +07 04 20.9                 EV037673
         K05V00Q 5C2005 11 04.23438 03 04 31.58 +07 04 23.1                 EV037673
         K05V00Q  C2005 11 04.29053 03 04 20.29 +07 04 38.7                 EV037H36
         K05V00Q  C2005 11 04.29881 03 04 18.88 +07 04 40.1                 EV037H36
         K05V00Q  C2005 11 04.30036 03 04 18.55 +07 04 43.7          19.1 V EV037703
         K05V00Q  C2005 11 04.30526 03 04 17.49 +07 04 43.0          19.8 R EV037H36
         K05V00Q  C2005 11 04.30617 03 04 17.47 +07 04 46.1          18.6 V EV037703
         K05V00Q  C2005 11 04.31199 03 04 16.28 +07 04 47.2          19.3 V EV037703
         K05V00Q  C2005 11 04.31274 03 04 16.10 +07 04 48.3          19.2 R EV037854
         K05V00Q  C2005 11 04.31665 03 04 15.43 +07 04 48.9          19.4 R EV037854
         K05V00Q  C2005 11 04.31779 03 04 15.13 +07 04 48.3          19.5 V EV037703
         K05V00Q  C2005 11 04.32054 03 04 14.61 +07 04 50.5          19.4 R EV037854
         K05V00Q  C2005 11 04.33389 03 04 12.00 +07 04 53.5          18.9 V EV037G96
         K05V00Q  C2005 11 04.34047 03 04 10.70 +07 04 55.4          19.1 V EV037G96
         K05V00Q  C2005 11 04.34714 03 04 09.37 +07 04 57.6          19.0 V EV037G96
         K05V00Q  C2005 11 04.35380 03 04 08.07 +07 04 59.4          19.2 V EV037G96
         K05V00Q  C2005 11 04.37757 03 04 03.36 +07 05 06.3          19.5 V EV037703
         K05V00Q  C2005 11 04.38108 03 04 02.71 +07 05 07.5          19.3 V EV037703
         K05V00Q  C2005 11 04.38460 03 04 01.99 +07 05 09.0          19.1 V EV037703
         K05V00Q  C2005 11 04.38808 03 04 01.38 +07 05 09.7          19.2 V EV037703
    
    Observer details:
    461 Szeged University, Piszkesteto Stn. (Konkoly).  Observer K. Sarneczky.
        0.60-m Schmidt + CCD.
    673 Table Mountain Observatory, Wrightwood.  Observer J. Young.  0.6-m f/16
        Cassegrain + CCD.
    703 Catalina Sky Survey.  Observer R. A. Kowalski.  Measurers E. C. Beshore,
        E. J. Christensen, G. J. Garradd, A. D. Grauer, R. E. Hill, R. A. Kowalski,
        S. M. Larson, R. H. McNaught.  0.68-m Schmidt + CCD.
    854 Sabino Canyon Observatory, Tucson.  Observer J. E. McGaha.  0.36-m f/10.0
        Schmidt-Cassegrain + CCD.
    932 John J. McCarthy Obs., New Milford.  Observer J. Reynolds.  Measurer
        J. Gebauer.  0.4-m f/6.5 Schmidt-Cassegrain + CCD.
    G96 Mt. Lemmon Survey.  Observer R. Hill.  Measurers E. C. Beshore,
        E. J. Christensen, G. J. Garradd, A. D. Grauer, R. E. Hill, R. A. Kowalski,
        S. M. Larson, R. H. McNaught.  1.5-m reflector + CCD.
    H36 Sandlot Observatory, Scranton.  Observer G. Hug.  0.30-m
        Schmidt-Cassegrain + CCD.
    
    Orbital elements:
    2005 VQ
    Epoch 2005 Oct. 17.0 TT = JDT 2453660.5                 MPC
    M 118.44081              (2000.0)            P               Q
    n   0.80432961     Peri.  186.42197     -0.50866729     +0.80594951
    a   1.1451086      Node    53.44309     -0.77219742     -0.27152543
    e   0.5396995      Incl.   22.14750     -0.38074759     -0.52604118
    P   1.23           H   18.6           G   0.15
    From 37 observations 2005 Nov. 3-4.
    
    Ephemeris:
    2005 VQ                  a,e,i = 1.15, 0.54, 22                  q = 0.5271
    Date    TT    R. A. (2000) Decl.     Delta      r     Elong.  Phase     V
    2005 10 27    03 30.62   +06 25.8    0.684    1.648   158.1    13.0    19.6
    2005 11 06    02 58.91   +07 13.4    0.694    1.680   170.6     5.5    19.4
    2005 11 16    02 28.98   +08 07.1    0.737    1.707   162.8     9.9    19.7
    2005 11 26    02 04.81   +09 06.2    0.809    1.729   148.3    17.5    20.2
    2005 12 06    01 48.00   +10 11.6    0.904    1.745   134.8    23.6    20.7
    2005 12 16    01 38.32   +11 24.1    1.015    1.756   122.9    28.1    21.1
    2005 12 26    01 34.61   +12 43.6    1.136    1.762   112.3    31.1    21.4
    2006 01 05    01 35.70   +14 09.5    1.260    1.763   102.9    32.9    21.7
    2006 01 15    01 40.56   +15 41.3    1.385    1.758    94.4    33.9    21.9
    
    Timothy B. Spahr             (C) Copyright 2005 MPC           M.P.E.C. 2005-V37
    

    Read MPEC 2005-V36 Read MPEC 2005-V38


    MPEC number:

    Enter an MPEC number in one of the following forms:

    • 1997-B01 (the full form)
    • J97B01 (the packed version of the full form)
    • B01 (the abbreviated form)